Regional Weather Roundup
Issued by NWS

Home | Current Version | Previous Version | Graphics & Text | Print | Product List | Glossary Off
Versions: 1 2 3 4 5 6 7 8 9 10 11 12 13 14 15 16 17 18 19 20 21 22 23 24 25 26 27 28 29 30 31 32 33 34 35 36 37 38 39 40 41 42 43 44 45 46 47 48 49 50

000
ASUS43 KLSX 171607
RWRMO

WEATHER SUMMARY FOR MISSOURI
NATIONAL WEATHER SERVICE SPRINGFIELD MO
1000 AM CST WED JAN 17 2018

NOTE: "FAIR" INDICATES FEW OR NO CLOUDS BELOW 12,000 FEET WITH NO
       SIGNIFICANT WEATHER AND/OR OBSTRUCTIONS TO VISIBILITY.
       CURRENT SKY AND/OR WEATHER CONDITIONS ARE NOT AVAILABLE FOR
       CHILLICOTHE AND FARMINGTON.

MOZ001>031-035>038-043-044-053-054-171700-
...NORTHERN AND WESTERN MISSOURI...

CITY           SKY/WX    TMP DP  RH WIND       PRES   REMARKS
KANSAS CTY INT CLOUDY    11   5  77 SW10      30.64R WCI  -3
KANSAS C DTWN  CLOUDY    14   6  70 SW7       30.68S WCI   4
LEE`S SUMMIT   CLOUDY    12   6  77 SW12      30.66R WCI  -2
ST JOSEPH        N/A    N/A N/A N/A MISG      30.66R
CHILLICOTHE      N/A      8   3  80 VRB5      30.68R WCI   0
KIRKSVILLE     CLOUDY     8   5  87 SW12      30.64R WCI  -7

$$
MOZ066>068-077>081-088>096-101>105-171700-
...SOUTHWEST MISSOURI...

CITY           SKY/WX    TMP DP  RH WIND       PRES   REMARKS
SPRINGFIELD    CLOUDY     8   3  80 W5        30.69R WCI   0
JOPLIN         CLOUDY     8   6  92 SW7       30.73R WCI  -3
BRANSON        MOSUNNY    9   1  72 W5        30.70R WCI   0

$$
MOZ032>034-039>042-045>050-055>058-069>072-171700-
...CENTRAL MISSOURI...

CITY           SKY/WX    TMP DP  RH WIND       PRES   REMARKS
COLUMBIA       CLOUDY     9   3  77 W8        30.69R WCI  -3
JEFFERSON CITY CLOUDY     8   2  76 CALM      30.75R
ROLLA          CLOUDY     8   3  80 W8        30.68R WCI  -4
SEDALIA        CLOUDY     9   5  84 SW8       30.70R WCI  -3
WHITEMAN AFB   SUNNY     11   3  70 SW7       30.65R WCI   0
WARRENSBURG    CLOUDY    10   5  79 SW7       30.70R WCI   0
OSAGE BEACH    CLOUDY     8   1  73 SW6       30.72S WCI  -2

$$
MOZ051-052-059>065-171700-
...EAST CENTRAL MISSOURI...

CITY           SKY/WX    TMP DP  RH WIND       PRES   REMARKS
ST LOUIS INTL  SUNNY     12   3  67 W8        30.71R WCI   0
SPIRIT OF STL  SUNNY     11   3  70 W7        30.72R WCI   0
ST CHARLES     SUNNY      9   1  70 W6        30.72S WCI  -1

$$
MOZ072>076-082>087-097>100-106>115-171700-
...SOUTH CENTRAL AND SOUTHEAST MISSOURI...

CITY           SKY/WX    TMP DP  RH WIND       PRES   REMARKS
CAPE GIRARDEAU FAIR      13   4  67 NW5       30.74R WCI   5
FARMINGTON     FAIR      15   5  64 NW6       30.69R WCI   6
POPLAR BLUFF   FAIR     N/A N/A N/A N3        30.76R
WEST PLAINS    CLOUDY     9   2  73 SW3       30.68R

$$



USA.gov is the U.S. government's official web portal to all federal, state and local government web resources and services.